This is the latest recevied weather packets stored in our database for station/object DG8SBT-13. If no packets are shown the sender has not sent any weather packets the latest 10 day(s).
| Time | Temp. | Humidity | Pressure | Rain* | Wind** | Luminosity | Snow |
|---|---|---|---|---|---|---|---|
| 1778046858 | 22.78° C | 41% | 1008.4 hPa | - | - | - | - |
| 1778045067 | 22.22° C | 42% | 1008.5 hPa | - | - | - | - |
| 1778043276 | 22.22° C | 41% | 1008.7 hPa | - | - | - | - |
| 1778041484 | 22.22° C | 40% | 1008.6 hPa | - | - | - | - |
| 1778039693 | 22.22° C | 39% | 1008.8 hPa | - | - | - | - |
| 1778037901 | 22.78° C | 38% | 1009 hPa | - | - | - | - |
| 1778036112 | 22.78° C | 39% | 1008.8 hPa | - | - | - | - |
| 1778034322 | 22.78° C | 39% | 1009.2 hPa | - | - | - | - |
| 1778030743 | 22.78° C | 39% | 1009.4 hPa | - | - | - | - |
| 1778028953 | 22.78° C | 39% | 1009.2 hPa | - | - | - | - |
| 1778027162 | 22.78° C | 38% | 1009.6 hPa | - | - | - | - |
| 1778025372 | 23.33° C | 39% | 1009.9 hPa | - | - | - | - |
| 1778023583 | 23.33° C | 39% | 1010.1 hPa | - | - | - | - |
| 1778021793 | 23.33° C | 39% | 1010 hPa | - | - | - | - |
| 1778020003 | 23.89° C | 39% | 1010 hPa | - | - | - | - |
| 1778018212 | 23.89° C | 39% | 1009.9 hPa | - | - | - | - |
| 1778016422 | 23.89° C | 39% | 1010.2 hPa | - | - | - | - |
| 1778014632 | 23.89° C | 39% | 1010 hPa | - | - | - | - |
| 1778012844 | 23.89° C | 39% | 1009.8 hPa | - | - | - | - |
| 1778011053 | 24.44° C | 39% | 1009.4 hPa | - | - | - | - |
| 1778009264 | 24.44° C | 39% | 1009.2 hPa | - | - | - | - |
| 1778007475 | 25° C | 38% | 1009.1 hPa | - | - | - | - |
| 1778005683 | 25.56° C | 37% | 1009.2 hPa | - | - | - | - |
| 1778003892 | 25.56° C | 38% | 1009 hPa | - | - | - | - |
| 1778002102 | 25.56° C | 42% | 1009.3 hPa | - | - | - | - |
* Rain since midnight (hover to see other rain measurements)
** Current wind speed in m/s (hover to see current wind gust speed)